Weather History for Fort Polk, LA

Change the Weather History Date:

Saturday, April 20, 2013

  Actual Average (KPOE) Record (KPOE)
Temperature  
Mean Temperature 54 °F -  
Max Temperature 71 °F 76 °F 90 °F (2011)
Min Temperature 37 °F 55 °F 37 °F (2013)
Degree Days  
Heating Degree Days 11    
Growing Degree Days 4 (Base 50)    
Moisture  
Dew Point 37 °F    
Average Humidity 60    
Maximum Humidity 93    
Minimum Humidity 25    
Precipitation  
Precipitation 0.00 in - - ()
Sea Level Pressure  
Sea Level Pressure 30.19 in    
Wind  
Wind Speed 2 mph (SE)    
Max Wind Speed 8 mph    
Max Gust Speed 17 mph    
Visibility 10 miles    
Events      
Averages and records for this station are not official NWS values.
T = Trace of Precipitation, MM = Missing Value Source: NWS Daily Summary

Daily Weather History Graph

Daily Weather History Graph

Search for Another Location

Airport:

Trip Planner

Search our weather history database for the weather conditions in past years. The results will help you decide how hot, cold, wet, or windy it might be!

Date:

Astronomy

Apr. 20, 2013 Rise Set
Actual Time 6:39 AM CDT 7:45 PM CDT
Civil Twilight 6:13 AM CDT 8:10 PM CDT
Nautical Twilight 5:44 AM CDT 8:40 PM CDT
Astronomical Twilight 5:13 AM CDT 9:11 PM CDT
Moon 2:48 PM CDT (4/20) 3:08 AM CDT (4/20)
Length of Visible Light 13h 56m
Length of Day
13h 06m
Waxing Gibbous, 71% of the Moon is Illuminated
Apr 20
Waxing Gibbous
Apr 25
Full
May 2
Last Quarter
May 9
New
May 17
First Quarter

Hourly Weather History & Observations

Time (CDT) Temp. Dew Point Humidity Pressure Visibility Wind Dir Wind Speed Gust Speed Precip Events Conditions
12:56 AM 42.1 °F 39.0 °F 89% 30.21 in 10.0 mi Calm Calm - N/A   Clear
1:56 AM 41.0 °F 37.9 °F 89% 30.21 in 10.0 mi Calm Calm - N/A   Clear
2:56 AM 39.9 °F 37.9 °F 93% 30.20 in 10.0 mi Calm Calm - N/A   Clear
3:56 AM 39.9 °F 37.0 °F 89% 30.20 in 10.0 mi Calm Calm - N/A   Clear
4:56 AM 39.0 °F 36.0 °F 89% 30.19 in 10.0 mi Calm Calm - N/A   Clear
5:56 AM 39.0 °F 36.0 °F 89% 30.20 in 10.0 mi Calm Calm - N/A   Clear
6:56 AM 37.9 °F 36.0 °F 93% 30.23 in 10.0 mi Calm Calm - N/A   Clear
7:56 AM 43.0 °F 41.0 °F 93% 30.24 in 10.0 mi Calm Calm - N/A   Clear
8:56 AM 55.9 °F 39.0 °F 53% 30.25 in 10.0 mi Calm Calm - N/A   Clear
9:56 AM 60.1 °F 33.1 °F 36% 30.25 in 10.0 mi Variable 5.8 mph - N/A   Clear
10:56 AM 63.0 °F 30.9 °F 30% 30.25 in 10.0 mi Variable 4.6 mph - N/A   Clear
11:56 AM 64.9 °F 30.9 °F 28% 30.24 in 10.0 mi Variable 5.8 mph - N/A   Clear
12:56 PM 68.0 °F 32.0 °F 26% 30.21 in 10.0 mi Variable 5.8 mph - N/A   Clear
1:56 PM 69.1 °F 32.0 °F 25% 30.19 in 10.0 mi Variable 6.9 mph - N/A   Clear
2:56 PM 71.1 °F 34.0 °F 26% 30.17 in 10.0 mi Variable 4.6 mph - N/A   Clear
3:56 PM 71.1 °F 33.1 °F 25% 30.14 in 10.0 mi Variable 6.9 mph 17.3 mph N/A   Clear
4:56 PM 70.0 °F 34.0 °F 27% 30.12 in 10.0 mi SE 8.1 mph - N/A   Clear
5:56 PM 70.0 °F 35.1 °F 28% 30.10 in 10.0 mi Variable 3.5 mph - N/A   Clear
6:56 PM 66.9 °F 37.9 °F 34% 30.10 in 10.0 mi Variable 3.5 mph - N/A   Clear
7:56 PM 61.0 °F 39.9 °F 46% 30.12 in 10.0 mi Calm Calm - N/A   Clear
8:56 PM 55.0 °F 44.1 °F 67% 30.15 in 10.0 mi Calm Calm - N/A   Clear
9:56 PM 51.1 °F 46.9 °F 86% 30.17 in 10.0 mi Calm Calm - N/A   Clear
10:56 PM 48.9 °F 44.1 °F 83% 30.18 in 10.0 mi Calm Calm - N/A   Clear
11:56 PM 48.0 °F 44.1 °F 86% 30.18 in 10.0 mi Calm Calm - N/A   Clear